Delta Virtual Airport Information Service

Minneapolis Saint Paul International Airport

ICAO: KMSP Country: United States
Latitude: 44.882 Longitude: -93.2217
Latest Arrival : DAL3051 (1) (KMCO-KMSP) Latest Departure : DALJUMP (KMSP-KSEA)


WX CaptureLIVE
Data provided by noaa.gov | Fetched at 03:22:26

METAR : KMSP 300753Z 29014G28KT 9SM -SN OVC025 M06/M09 A2978 RMK AO2 PK WND 29030/0728 SNB06 SLP098 P0010 T10561094

TAF : KMSP 300753Z 29014G28KT 9SM -SN OVC025 M06/M09 A2978 RMK AO2 PK WND 29030/0728 SNB06 SLP098 P0010 T10561094


Runway Data for KMSP
Data provided by openaviationdata.com

Runway ID Mag Var Hdg Length Elevation Surface ILS Freq ILS Id ILS Slope
4 2 42° 10999 ft 841 ft Concrete 109.3 IAPL 3
12L 2 119° 8190 ft 841 ft Asphalt 110.7 IPJL 3
12R 2 119° 9988 ft 841 ft Asphalt 110.3 IHKZ 3
22 2 222° 10999 ft 841 ft Concrete 110.5 ISIJ 0
30L 2 299° 9988 ft 841 ft Asphalt 110.3 IMSP 3
30R 2 299° 8190 ft 841 ft Asphalt 110.7 IINN 3

Minneapolis Saint Paul International Airport, United States
Use only for reference purposes



Not for navigational purposes.